Retour au catalogue

STARLINK-3260

ActifCommunicationsVLEO
NORAD 50205·PAYLOAD·🇺🇸 United States

Lancé Dec 18, 2021 depuis Vandenberg Space Force Base

Loading…

Prochains Passages (prochaines 24 heures)

TLE

FraisSource: CelesTrak SupGP

Époque: Sep 14, 2026, 20:52 UTC

1 50205C 21125BB  26257.86993056  .00004244  00000+0  13649-3 0  2577
2 50205  53.1582  75.0292 0001131  82.8107  15.7377 15.31696177    12

Suivez STARLINK-3260 en temps réel avec AllMySat

Download on the App Store